Charlottetown, Prince Edward Island

12:45 AM ADT on July 28, 2017 (GMT -0300)
Charlottetown

Weather History for CYYG - January, 2013

Change the Weather History Date:

Tuesday, January 1, 2013

  Actual Average Record
Temperature  
Mean Temperature 18 °F -  
Max Temperature 24 °F 26 °F 42 °F (2005)
Min Temperature 10 °F 10 °F -4 °F (1999)
Degree Days  
Heating Degree Days 47    
Moisture  
Dew Point 14 °F    
Average Humidity 81    
Maximum Humidity 93    
Minimum Humidity 68    
Precipitation  
Precipitation 0.01 in 0.14 in - ()
Sea Level Pressure  
Sea Level Pressure 29.43 in    
Wind  
Wind Speed 10 mph ()    
Max Wind Speed 17 mph    
Max Gust Speed 28 mph    
Visibility 11.8 miles    
Events Snow    
Averages and records for this station are not official NWS values.
T = Trace of Precipitation, MM = Missing Value Source: Averaged Metar Reports

Daily Weather History Graph

Daily Weather History Graph

Search for Another Location

Airport or City:

Trip Planner

Search our weather history database for the weather conditions in past years. The results will help you decide how hot, cold, wet, or windy it might be!

Date:

Astronomy

Jan. 01, 2013 Rise Set
Actual Time 7:55 AM AST 4:37 PM AST
Civil Twilight 7:20 AM AST 5:11 PM AST
Nautical Twilight 6:42 AM AST 5:49 PM AST
Astronomical Twilight 6:06 AM AST 6:26 PM AST
Moon 9:20 PM AST (1/1) 9:50 AM AST (1/1)
Length of Visible Light 9h 50m
Length of Day
8h 41m
Waning Gibbous, 84% of the Moon is Illuminated
Jan 1
Waning Gibbous
Jan 4
Last Quarter
Jan 11
New
Jan 18
First Quarter
Jan 27
Full

Hourly Weather History & Observations

Time (AST) Temp. Windchill Dew Point Humidity Pressure Visibility Wind Dir Wind Speed Gust Speed Precip Events Conditions
12:00 AM 15.8 °F 2.7 °F 10.4 °F 79% 29.49 in 15.0 mi West 11.5 mph 19.6 mph N/A   Clear
1:00 AM 15.8 °F 3.4 °F 10.4 °F 79% 29.50 in 15.0 mi West 10.4 mph - N/A   Partly Cloudy
2:00 AM 15 °F - 11 °F 75% 29.49 in 15 mi West 12.7 mph - -   Scattered Clouds
2:00 AM 15.8 °F 2.1 °F 10.4 °F 79% 29.49 in 15.0 mi West 12.7 mph - N/A   Partly Cloudy
3:00 AM 15.8 °F 0.9 °F 10.4 °F 79% 29.49 in 15.0 mi West 15.0 mph 25.3 mph N/A   Partly Cloudy
4:00 AM 14.0 °F 3.9 °F 10.4 °F 86% 29.48 in 15.0 mi SW 6.9 mph - N/A   Clear
5:00 AM 15.8 °F 8.6 °F 10.4 °F 79% 29.47 in 15.0 mi WSW 4.6 mph - N/A   Scattered Clouds
6:00 AM 15.8 °F 7.2 °F 12.2 °F 86% 29.46 in 15.0 mi WSW 5.8 mph - N/A   Mostly Cloudy
7:00 AM 17.6 °F 6.4 °F 14.0 °F 86% 29.45 in 15.0 mi WSW 9.2 mph - N/A   Mostly Cloudy
8:00 AM 17 °F - 15 °F 86% 29.44 in 15 mi WSW 9.2 mph - -   Scattered Clouds
8:00 AM 17.6 °F 6.4 °F 14.0 °F 86% 29.44 in 15.0 mi SW 9.2 mph - N/A   Scattered Clouds
8:37 AM 17.6 °F 5.7 °F 15.8 °F 93% 29.43 in 15.0 mi WSW 10.4 mph - N/A Snow Light Snow Showers
9:00 AM 19.4 °F 7.2 °F 15.8 °F 86% 29.43 in 15.0 mi WSW 11.5 mph - N/A Snow Light Snow Showers
10:00 AM 21.2 °F 10.1 °F 17.6 °F 86% 29.42 in 15.0 mi WSW 10.4 mph - N/A Snow Light Snow Showers
10:34 AM 21.2 °F 12.6 °F 17.6 °F 86% 29.43 in 10.0 mi West 6.9 mph - N/A Snow Light Snow Showers
10:52 AM 21.2 °F 10.1 °F 19.4 °F 93% 29.42 in 10.0 mi West 10.4 mph - N/A Snow Light Snow Showers
11:00 AM 21.2 °F 10.1 °F 19.4 °F 93% 29.42 in 10.0 mi West 10.4 mph - N/A Snow Light Snow Showers
12:00 PM 23.0 °F 12.4 °F 19.4 °F 86% 29.40 in 15.0 mi West 10.4 mph - N/A   Mostly Cloudy
12:28 PM 23.0 °F 11.7 °F 19.4 °F 86% 29.40 in 15.0 mi WNW 11.5 mph 17.3 mph N/A Snow Light Snow Showers
1:00 PM 23.0 °F 13.9 °F 19.4 °F 86% 29.39 in 8.0 mi West 8.1 mph - N/A Snow Light Snow Showers
2:00 PM 24 °F - 20 °F 77% 29.39 in 12 mi West 9.2 mph - - Snow Light Snow Showers
2:00 PM 23.0 °F 13.1 °F 19.4 °F 86% 29.39 in 12.0 mi West 9.2 mph - N/A Snow Light Snow Showers
2:48 PM 23.0 °F 12.4 °F 19.4 °F 86% 29.39 in 15.0 mi WNW 10.4 mph 18.4 mph N/A   Mostly Cloudy
3:00 PM 23.0 °F 13.1 °F 19.4 °F 86% 29.39 in 15.0 mi West 9.2 mph - N/A   Mostly Cloudy
4:00 PM 21.2 °F 11.7 °F 15.8 °F 80% 29.40 in 15.0 mi West 8.1 mph - N/A   Scattered Clouds
4:11 PM 21.2 °F 12.6 °F 15.8 °F 80% 29.40 in 12.0 mi West 6.9 mph - N/A Snow Light Snow Showers
5:00 PM 23.0 °F 11.1 °F 15.8 °F 74% 29.40 in 15.0 mi West 12.7 mph 20.7 mph N/A Snow Light Snow Showers
6:00 PM 19.4 °F 6.6 °F 12.2 °F 74% 29.41 in 15.0 mi West 12.7 mph 20.7 mph N/A Snow Light Snow Showers
6:18 PM 19.4 °F 5.0 °F 10.4 °F 68% 29.42 in 15.0 mi West 16.1 mph 26.5 mph N/A Snow Low Drifting Snow
6:42 PM 19.4 °F 4.5 °F 10.4 °F 68% 29.42 in 6.0 mi West 17.3 mph 27.6 mph N/A Snow Light Snow Showers
7:00 PM 17.6 °F 2.7 °F 12.2 °F 79% 29.42 in 5.0 mi West 16.1 mph 21.9 mph N/A Snow Light Snow Showers
7:18 PM 17.6 °F 4.3 °F 12.2 °F 79% 29.42 in 2.0 mi West 12.7 mph 20.7 mph N/A Snow Light Snow Showers
7:41 PM 15.8 °F 2.7 °F 10.4 °F 79% 29.42 in 6.0 mi West 11.5 mph 17.3 mph N/A Snow Light Snow Showers
8:00 PM 16 °F - 11 °F 72% 29.42 in 3 mi West 15.0 mph - - Snow Light Snow Showers
8:00 PM 15.8 °F 1.4 °F 10.4 °F 79% 29.42 in 3.0 mi West 13.8 mph 23.0 mph N/A Snow Light Snow Showers
9:00 PM 14.0 °F -2.5 °F 6.8 °F 73% 29.43 in 10.0 mi West 17.3 mph 25.3 mph N/A Snow Light Snow Showers
10:00 PM 12.2 °F -1.8 °F 6.8 °F 79% 29.44 in 5.0 mi WNW 11.5 mph 24.2 mph N/A Snow Light Snow Showers
11:00 PM 10.4 °F -4.1 °F 5.0 °F 79% 29.45 in 5.0 mi West 11.5 mph 20.7 mph N/A Snow Light Snow Showers